April 24, 2014
Temp
 
81.8 °F
 
Dew Pt.
 
52.2 °F
 
Humidity
 
36%
 
Pressure
 
1011.5 hPa 
  falling rapidly
Wind
 
0.0 mph 
    WSW
Rain
 
0.00 in 
  0.00 in/hr
UV index
 
1.7  
 
Solar rad.
 
603 W/m²
 
Tonight

Patchy Fog
Patchy
Fog
Friday

Patchy Fog
Patchy
Fog
Lo 53 °F Hi 71 °F
Statistics - 4/24/2014
Max Temp 84.5 °F  3:15 pm
Min Temp 52.2 °F  6:20 am
Max Dew Pt 52.9 °F  4:05 pm
Min Dew Pt 42.1 °F  6:30 am
Max Pressure 1015.4 hPa  9:55 am
Min Pressure 1011.6 hPa  4:00 pm
Max Wind 15 mph  3:45 pm
Max UV 6.1   1:05 pm
Max Solar 928 W/m²  12:55 pm
Max Rainfall Rate —   —
Total Precipitation —   
Current Temp 81.7 °F  4:05 pm
Temp 24hr ago 75.2 °F  4:05 pm
Difference +6.5 °F  
Temp Rate -3.5 °F/hr  
Pressure Rate -0.5 hPa/hr  
time temp dew pt pressure uv solar wind wind speed rainfall rate
00:00 56.6 °F 42.9 °F 1013.7 hPa  NNW 1 mph   
00:05 56.6 °F 42.9 °F 1013.9 hPa  NNW 1 mph   
00:10 56.7 °F 43.0 °F 1014.1 hPa  NW 5 mph   
00:15 56.9 °F 43.6 °F 1014.2 hPa  WNW 5 mph   
00:20 57.0 °F 43.7 °F 1014.2 hPa  Calm    
00:25 56.9 °F 44.0 °F 1014.3 hPa  NNW 2 mph   
00:30 56.8 °F 43.9 °F 1014.2 hPa  Calm    
00:35 56.8 °F 44.3 °F 1014.3 hPa  NNW 2 mph   
00:40 56.7 °F 44.2 °F 1014.4 hPa  Calm    
00:45 56.6 °F 44.2 °F 1014.4 hPa  NNW 1 mph   
00:50 56.5 °F 44.1 °F 1014.3 hPa  NNW 1 mph   
00:55 56.3 °F 43.9 °F 1014.2 hPa  Calm    
01:00 56.0 °F 44.0 °F 1014.3 hPa  Calm    
01:05 55.9 °F 43.9 °F 1014.2 hPa  Calm    
01:10 55.8 °F 43.8 °F 1014.2 hPa  NNW 1 mph   
01:15 55.7 °F 43.7 °F 1014.2 hPa  NNW 1 mph   
01:20 55.7 °F 43.7 °F 1014.2 hPa  Calm    
01:25 55.7 °F 43.7 °F 1014.1 hPa  Calm    
01:30 55.7 °F 43.7 °F 1014.1 hPa  Calm    
01:35 55.5 °F 43.9 °F 1014.1 hPa  Calm    
01:40 55.4 °F 43.8 °F 1014.1 hPa  Calm    
01:45 55.4 °F 43.8 °F 1014.1 hPa  Calm    
01:50 55.3 °F 43.7 °F 1013.9 hPa  Calm    
01:55 55.2 °F 43.6 °F 1013.9 hPa  Calm    
02:00 55.1 °F 43.5 °F 1013.8 hPa  Calm    
02:05 55.0 °F 43.5 °F 1013.7 hPa  Calm    
02:10 55.0 °F 43.5 °F 1013.7 hPa  Calm    
02:15 55.0 °F 43.0 °F 1013.7 hPa  Calm    
02:20 54.9 °F 43.0 °F 1013.6 hPa  Calm    
02:25 55.0 °F 43.0 °F 1013.6 hPa  Calm    
02:30 55.0 °F 42.6 °F 1013.6 hPa  Calm    
02:35 55.0 °F 43.0 °F 1013.6 hPa  Calm    
02:40 54.9 °F 43.4 °F 1013.5 hPa  Calm    
02:45 54.7 °F 43.2 °F 1013.4 hPa  Calm    
02:50 54.6 °F 43.1 °F 1013.4 hPa  Calm    
02:55 54.8 °F 43.7 °F 1013.3 hPa  Calm    
03:00 54.9 °F 43.4 °F 1013.3 hPa  Calm    
03:05 54.8 °F 43.7 °F 1013.3 hPa  Calm    
03:10 54.9 °F 43.8 °F 1013.3 hPa  Calm    
03:15 55.0 °F 43.9 °F 1013.3 hPa  Calm    
03:20 54.9 °F 44.2 °F 1013.3 hPa  Calm    
03:25 54.8 °F 44.1 °F 1013.3 hPa  Calm    
03:30 54.7 °F 44.0 °F 1013.2 hPa  Calm    
03:35 54.6 °F 44.3 °F 1013.2 hPa  Calm    
03:40 54.6 °F 44.3 °F 1013.2 hPa  Calm    
03:45 54.6 °F 44.3 °F 1013.2 hPa  Calm    
03:50 54.5 °F 44.5 °F 1013.2 hPa  Calm    
03:55 54.5 °F 44.5 °F 1013.1 hPa  Calm    
04:00 54.4 °F 44.4 °F 1013.1 hPa  Calm    
04:05 54.3 °F 44.3 °F 1013.1 hPa  Calm    
04:10 54.3 °F 44.3 °F 1013.2 hPa  NNW 3 mph   
04:15 54.3 °F 44.3 °F 1013.2 hPa  NNW 1 mph   
04:20 54.2 °F 44.3 °F 1013.2 hPa  Calm    
04:25 54.2 °F 44.3 °F 1013.3 hPa  Calm    
04:30 54.0 °F 44.1 °F 1013.3 hPa  Calm    
04:35 53.9 °F 44.0 °F 1013.3 hPa  Calm    
04:40 53.7 °F 43.8 °F 1013.3 hPa  Calm    
04:45 53.6 °F 43.7 °F 1013.4 hPa  Calm    
04:50 53.5 °F 43.6 °F 1013.4 hPa  Calm    
04:55 53.4 °F 43.5 °F 1013.4 hPa  Calm    
05:00 53.2 °F 43.3 °F 1013.5 hPa  Calm    
05:05 53.1 °F 43.2 °F 1013.5 hPa  Calm    
05:10 53.0 °F 43.1 °F 1013.5 hPa  Calm    
05:15 52.9 °F 43.0 °F 1013.5 hPa  Calm    
05:20 52.9 °F 43.0 °F 1013.5 hPa  NNW 1 mph   
05:25 52.8 °F 42.9 °F 1013.6 hPa  NNW 3 mph   
05:30 52.7 °F 42.8 °F 1013.7 hPa  Calm    
05:35 52.7 °F 43.2 °F 1013.9 hPa  NNW 1 mph   
05:40 52.7 °F 43.2 °F 1013.9 hPa  Calm    
05:45 52.7 °F 43.2 °F 1014.0 hPa  Calm    
05:50 52.6 °F 43.1 °F 1014.1 hPa  Calm    
05:55 52.4 °F 42.9 °F 1014.1 hPa  Calm    
06:00 52.3 °F 42.8 °F 1014.1 hPa  Calm    
06:05 52.3 °F 42.4 °F 1014.1 hPa  Calm    
06:10 52.3 °F 42.4 °F 1014.2 hPa  Calm    
06:15 52.2 °F 42.3 °F 1014.3 hPa 2 W/m²  NNW 1 mph   
06:20 52.3 °F 42.4 °F 1014.3 hPa 6 W/m²  Calm    
06:25 52.3 °F 42.4 °F 1014.4 hPa 8 W/m²  NNW 1 mph   
06:30 52.3 °F 42.1 °F 1014.5 hPa 11 W/m²  Calm    
06:35 52.4 °F 42.2 °F 1014.6 hPa 13 W/m²  Calm    
06:40 52.4 °F 42.2 °F 1014.6 hPa 16 W/m²  Calm    
06:45 52.6 °F 42.3 °F 1014.6 hPa 18 W/m²  Calm    
06:50 52.7 °F 42.4 °F 1014.6 hPa 20 W/m²  Calm    
06:55 52.8 °F 42.9 °F 1014.6 hPa 24 W/m²  Calm    
07:00 52.9 °F 43.0 °F 1014.7 hPa 26 W/m²  Calm    
07:05 53.0 °F 43.5 °F 1014.7 hPa 29 W/m²  Calm    
07:10 53.2 °F 43.7 °F 1014.9 hPa 34 W/m²  Calm    
07:15 53.5 °F 44.0 °F 1014.9 hPa 112 W/m²  Calm    
07:20 53.9 °F 44.0 °F 1014.9 hPa 137 W/m²  Calm    
07:25 54.6 °F 44.6 °F 1015.0 hPa 153 W/m²  Calm    
07:30 55.2 °F 44.8 °F 1015.1 hPa 171 W/m²  Calm    
07:35 55.9 °F 45.1 °F 1015.1 hPa 174 W/m²  Calm    
07:40 56.5 °F 45.7 °F 1015.2 hPa 204 W/m²  Calm    
07:45 57.1 °F 45.8 °F 1015.2 hPa 217 W/m²  Calm    
07:50 57.7 °F 46.0 °F 1015.2 hPa 180 W/m²  Calm    
07:55 58.1 °F 46.0 °F 1015.2 hPa 56 W/m²  Calm    
08:00 58.4 °F 45.9 °F 1015.2 hPa 54 W/m²  Calm    
08:05 58.6 °F 45.6 °F 1015.2 hPa 68 W/m²  Calm    
08:10 59.0 °F 45.6 °F 1015.2 hPa 275 W/m²  Calm    
08:15 59.9 °F 45.5 °F 1015.1 hPa 325 W/m²  Calm    
08:20 60.5 °F 45.6 °F 1015.1 hPa 343 W/m²  Calm    
08:25 60.9 °F 44.6 °F 1015.2 hPa 361 W/m²  Calm    
08:30 61.3 °F 45.0 °F 1015.2 hPa 379 W/m²  Calm    
08:35 61.6 °F 44.8 °F 1015.2 hPa 398 W/m²  N 1 mph   
08:40 61.7 °F 44.4 °F 1015.1 hPa 416 W/m²  Calm    
08:45 62.1 °F 44.8 °F 1015.1 hPa 0.5 433 W/m²  Calm    
08:50 62.6 °F 44.7 °F 1015.2 hPa 0.6 451 W/m²  Calm    
08:55 63.1 °F 45.7 °F 1015.3 hPa 0.7 467 W/m²  ESE 1 mph   
09:00 63.5 °F 45.6 °F 1015.2 hPa 0.8 482 W/m²  ESE 2 mph   
09:05 64.1 °F 46.1 °F 1015.2 hPa 0.9 499 W/m²  Calm    
09:10 64.4 °F 45.4 °F 1015.2 hPa 1.1 516 W/m²  SSW 4 mph   
09:15 64.9 °F 46.3 °F 1015.2 hPa 1.2 533 W/m²  SSW 1 mph   
09:20 65.3 °F 46.7 °F 1015.3 hPa 1.3 549 W/m²  Calm    
09:25 65.8 °F 46.6 °F 1015.3 hPa 1.5 564 W/m²  SSW 1 mph   
09:30 65.7 °F 46.5 °F 1015.3 hPa 1.6 579 W/m²  SSE 3 mph   
09:35 66.3 °F 46.6 °F 1015.4 hPa 1.7 591 W/m²  SW 4 mph   
09:40 66.7 °F 47.5 °F 1015.4 hPa 1.9 606 W/m²  S 4 mph   
09:45 67.1 °F 47.8 °F 1015.4 hPa 2.0 619 W/m²  SE 5 mph   
09:50 67.5 °F 48.2 °F 1015.3 hPa 2.1 635 W/m²  SSW 4 mph   
09:55 67.3 °F 48.5 °F 1015.4 hPa 2.3 646 W/m²  SW 6 mph   
10:00 67.7 °F 47.8 °F 1015.4 hPa 2.5 660 W/m²  S 5 mph   
10:05 67.6 °F 48.3 °F 1015.3 hPa 2.6 674 W/m²  S 1 mph   
10:10 68.1 °F 48.7 °F 1015.4 hPa 2.7 687 W/m²  SE 1 mph   
10:15 68.5 °F 48.6 °F 1015.3 hPa 2.9 701 W/m²  S 1 mph   
10:20 69.0 °F 48.5 °F 1015.3 hPa 3.1 716 W/m²  ESE 7 mph   
10:25 69.7 °F 48.6 °F 1015.3 hPa 3.2 729 W/m²  SE 6 mph   
10:30 69.6 °F 49.0 °F 1015.2 hPa 3.4 740 W/m²  SW 3 mph   
10:35 70.2 °F 49.0 °F 1015.2 hPa 3.6 751 W/m²  SSE 2 mph   
10:40 70.3 °F 48.5 °F 1015.2 hPa 3.7 765 W/m²  SSW 4 mph   
10:45 70.8 °F 49.0 °F 1015.2 hPa 3.9 776 W/m²  S 5 mph   
10:50 71.5 °F 48.4 °F 1015.2 hPa 4.0 788 W/m²  SW 5 mph   
10:55 71.4 °F 47.7 °F 1015.2 hPa 4.2 798 W/m²  WSW 6 mph   
11:00 72.1 °F 47.7 °F 1015.2 hPa 4.3 807 W/m²  SW 5 mph   
11:05 72.2 °F 47.2 °F 1015.3 hPa 4.4 818 W/m²  SW 4 mph   
11:10 72.6 °F 46.9 °F 1015.3 hPa 4.6 827 W/m²  SW 7 mph   
11:15 72.6 °F 46.9 °F 1015.3 hPa 4.7 837 W/m²  SSW 7 mph   
11:20 73.2 °F 46.7 °F 1015.1 hPa 4.9 846 W/m²  S 6 mph   
11:25 73.9 °F 48.0 °F 1015.2 hPa 5.0 855 W/m²  SE 7 mph   
11:30 74.3 °F 47.7 °F 1015.1 hPa 5.1 862 W/m²  SW 9 mph   
11:35 74.1 °F 46.9 °F 1015.1 hPa 5.2 869 W/m²  SW 9 mph   
11:40 74.1 °F 47.5 °F 1015.0 hPa 5.3 877 W/m²  SW 7 mph   
11:45 75.5 °F 48.1 °F 1014.9 hPa 5.4 881 W/m²  WSW 8 mph   
11:50 74.9 °F 48.3 °F 1014.8 hPa 5.5 888 W/m²  S 8 mph   
11:55 76.2 °F 48.7 °F 1014.8 hPa 5.6 893 W/m²  S 6 mph   
12:00 75.8 °F 48.4 °F 1014.8 hPa 5.7 899 W/m²  SW 9 mph   
12:05 76.2 °F 49.4 °F 1014.6 hPa 5.8 903 W/m²  SW 8 mph   
12:10 76.7 °F 49.2 °F 1014.5 hPa 5.8 908 W/m²  S 9 mph   
12:15 77.1 °F 48.8 °F 1014.5 hPa 5.9 911 W/m²  SW 8 mph   
12:20 76.6 °F 48.4 °F 1014.4 hPa 5.9 915 W/m²  WSW 9 mph   
12:25 77.5 °F 49.2 °F 1014.3 hPa 6.0 917 W/m²  SW 8 mph   
12:30 77.0 °F 48.0 °F 1014.1 hPa 6.0 919 W/m²  WSW 8 mph   
12:35 77.3 °F 49.7 °F 1014.1 hPa 6.0 923 W/m²  NW 8 mph   
12:40 78.1 °F 49.7 °F 1014.0 hPa 6.1 921 W/m²  SSW 7 mph   
12:45 78.2 °F 49.0 °F 1014.0 hPa 6.1 925 W/m²  WSW 5 mph   
12:50 79.3 °F 50.0 °F 1013.9 hPa 6.1 925 W/m²  ESE 4 mph   
12:55 78.7 °F 48.7 °F 1013.7 hPa 6.1 927 W/m²  SW 7 mph   
13:00 79.7 °F 50.4 °F 1013.7 hPa 6.0 924 W/m²  SSW 9 mph   
13:05 79.7 °F 49.6 °F 1013.6 hPa 6.0 925 W/m²  SSW 7 mph   
13:10 79.8 °F 49.7 °F 1013.5 hPa 6.0 923 W/m²  W 7 mph   
13:15 80.2 °F 49.3 °F 1013.6 hPa 5.9 919 W/m²  SSW 7 mph   
13:20 80.4 °F 50.2 °F 1013.4 hPa 5.9 918 W/m²  SW 9 mph   
13:25 80.3 °F 50.1 °F 1013.4 hPa 5.8 917 W/m²  WSW 7 mph   
13:30 80.6 °F 49.6 °F 1013.3 hPa 5.8 911 W/m²  SW 7 mph   
13:35 80.8 °F 49.8 °F 1013.2 hPa 5.7 911 W/m²  SW 8 mph   
13:40 81.6 °F 49.7 °F 1013.2 hPa 5.6 906 W/m²  SW 9 mph   
13:45 81.7 °F 49.8 °F 1013.1 hPa 5.5 901 W/m²  WSW 8 mph   
13:50 82.2 °F 50.2 °F 1013.1 hPa 5.4 893 W/m²  S 8 mph   
13:55 82.3 °F 49.5 °F 1013.0 hPa 5.4 892 W/m²  SW 8 mph   
14:00 82.7 °F 49.8 °F 1013.0 hPa 5.2 884 W/m²  SW 7 mph   
14:05 83.0 °F 50.1 °F 1012.9 hPa 5.0 880 W/m²  SSE 8 mph   
14:10 83.0 °F 49.2 °F 1012.9 hPa 5.0 872 W/m²  SW 11 mph   
14:15 82.5 °F 48.8 °F 1012.8 hPa 4.9 867 W/m²  SW 11 mph   
14:20 82.7 °F 49.8 °F 1012.7 hPa 4.8 858 W/m²  SW 8 mph   
14:25 82.5 °F 48.8 °F 1012.7 hPa 4.7 851 W/m²  WNW 9 mph   
14:30 82.8 °F 49.0 °F 1012.6 hPa 4.6 845 W/m²  SW 7 mph   
14:35 82.3 °F 48.6 °F 1012.6 hPa 4.3 830 W/m²  SW 11 mph   
14:40 83.0 °F 49.2 °F 1012.6 hPa 4.3 824 W/m²  SW 7 mph   
14:45 83.0 °F 49.2 °F 1012.5 hPa 4.1 815 W/m²  SW 7 mph   
14:50 84.1 °F 49.3 °F 1012.4 hPa 4.0 805 W/m²  SSW 8 mph   
14:55 83.6 °F 48.9 °F 1012.4 hPa 3.8 800 W/m²  SW 8 mph   
15:00 84.2 °F 48.5 °F 1012.4 hPa 3.6 785 W/m²  W 8 mph   
15:05 83.0 °F 48.3 °F 1012.3 hPa 3.5 773 W/m²  NW 6 mph   
15:10 84.2 °F 49.4 °F 1012.2 hPa 3.3 758 W/m²  SW 8 mph   
15:15 84.0 °F 49.2 °F 1012.1 hPa 3.1 746 W/m²  SSW 10 mph   
15:20 83.4 °F 51.2 °F 1012.0 hPa 3.0 729 W/m²  W 9 mph   
15:25 83.8 °F 52.4 °F 1012.0 hPa 2.9 721 W/m²  WSW 9 mph   
15:30 83.1 °F 51.8 °F 1011.9 hPa 2.8 710 W/m²  W 7 mph   
15:35 83.0 °F 52.5 °F 1011.9 hPa 2.6 694 W/m²  SSW 11 mph   
15:40 83.1 °F 52.6 °F 1011.9 hPa 2.5 680 W/m²  W 9 mph   
15:45 82.3 °F 52.6 °F 1011.9 hPa 2.3 669 W/m²  S 15 mph   
15:50 82.3 °F 51.9 °F 1011.8 hPa 2.2 659 W/m²  WSW 11 mph   
15:55 82.5 °F 52.8 °F 1011.8 hPa 2.1 642 W/m²  SW 10 mph   
16:00 81.3 °F 52.5 °F 1011.6 hPa 1.9 627 W/m²  S 5 mph   
16:05 81.7 °F 52.9 °F 1011.7 hPa 1.8 615 W/m²  SW 8 mph